Location: Marcé
(47.5801°N, 0.3280°W)
Time: 11:55:15
(UTC+01:00)

deb Explorer IX - Pass Details

Date: 02 December 2021
Orbit: 544 x 1082 km, 38.8° (Epoch: 17 January)

Event Time Altitude Azimuth Distance (km) Brightness Sun altitude
Rises 15:29:31 0° 258° (WSW) 2,716 ? 11.8°
Reaches altitude 10° 15:32:16 10° 240° (WSW) 1,804 ? 11.5°
Maximum altitude 15:35:10 19° 194° (SSW) 1,340 ? 11.2°
Drops below altitude 10° 15:38:05 10° 149° (SSE) 1,831 ? 10.9°
Sets 15:40:54 0° 131° (SE) 2,773 ? 10.6°
